RH
13 13 13 13 13 14 14 14 15 14 14 13 13 12 11 11 11 11 12 11 11 10 10 11 11 12 12 12 12 12 12 13 14 13 15 15 12 12 11 11 12 11 10 10 14 20 19 16 14 11 10 12 14 17 16 15 23 36 40 33 34 40 32 23 15 14 17 15 17 17 18 22 23 22 19 19 21 22 24 23 24 26 28 30 33 37 35 32
15 13 13 13 13 13 13 13 13 14 13 13 13 13 12 12 12 11 11 11 10 10 9 10 10 11 11 11 12 11 12 15 16 17 16 13 11 11 10 10 11 10 10 9 13 23 24 17 14 11 9 12 15 15 15 14 18 33 34 30 41 39 20 15 14 13 14 12 17 21 20 20 22 20 18 23 27 27 29 29 26 27 30 30 32 36 35 33
16 15 14 13 13 13 13 13 12 13 12 12 12 11 12 11 12 12 11 11 10 10 9 9 10 10 11 11 11 11 12 15 17 19 15 11 12 11 9 10 11 10 10 9 11 19 22 18 13 11 9 9 14 14 15 13 15 27 25 27 43 33 14 13 14 13 13 12 18 22 20 22 23 20 20 26 29 30 34 35 31 29 30 30 29 30 32 33
17 16 15 14 14 13 13 14 13 13 12 11 11 10 10 10 10 10 10 10 9 9 9 9 10 10 13 12 11 12 14 19 19 16 14 12 12 11 10 10 11 11 10 10 12 14 16 16 13 10 9 13 18 15 15 15 14 19 21 30 35 22 15 16 14 14 14 14 18 22 22 24 23 22 24 27 34 37 37 38 36 34 31 29 29 31 34 37
16 15 15 14 13 13 13 13 12 12 13 12 12 11 11 10 10 10 9 10 9 9 9 10 10 10 14 13 12 14 19 28 23 13 13 13 12 10 11 12 12 12 11 12 14 13 14 14 12 11 10 15 20 15 15 16 12 16 22 27 22 14 16 15 14 15 15 16 20 22 23 23 23 26 28 31 41 45 42 40 38 36 33 32 33 35 36 37
16 14 14 13 12 12 12 12 12 12 12 12 13 12 12 12 11 11 10 10 9 9 9 10 11 11 14 14 11 14 24 30 20 12 14 14 13 11 12 15 13 12 13 13 12 11 13 13 10 13 12 14 18 15 15 13 10 17 21 17 14 14 15 14 15 16 17 21 23 24 23 24 26 31 33 37 44 44 40 38 36 34 31 30 30 31 32 33
14 13 12 12 11 11 11 11 12 13 13 13 13 13 13 13 13 13 13 12 11 10 10 11 11 11 14 17 18 19 23 23 14 13 16 14 14 12 12 16 13 12 13 12 12 11 12 12 10 13 13 14 17 16 15 12 12 19 19 16 14 15 15 15 17 18 22 24 24 24 23 26 31 35 37 41 42 39 35 33 32 30 28 27 27 28 29 30
12 12 11 10 10 10 11 12 13 13 13 13 14 14 14 15 14 15 15 13 12 11 10 10 11 12 13 21 33 30 20 16 14 14 16 15 14 13 13 15 12 11 13 12 13 11 11 13 13 13 16 17 16 19 23 18 20 22 18 18 16 15 17 15 17 20 23 24 23 24 26 30 33 36 41 44 41 34 31 30 28 28 27 27 27 27 28 30
10 10 9 10 10 11 11 12 13 11 12 15 15 14 13 15 14 14 15 13 12 11 10 10 10 12 13 20 32 29 17 13 15 16 16 15 14 14 14 13 12 12 13 12 11 12 13 15 15 14 16 17 15 22 26 19 24 26 21 20 16 17 18 16 18 21 23 23 23 25 27 31 30 36 45 44 38 32 29 28 27 28 28 28 28 29 30 31
9 9 10 10 10 11 12 13 11 9 13 16 14 12 12 12 12 12 11 11 12 12 10 10 10 13 16 22 27 23 16 14 15 16 15 16 15 16 15 13 12 13 13 12 12 14 14 15 18 16 15 18 20 26 26 21 26 26 23 23 19 19 18 19 23 23 24 24 24 27 29 31 29 39 52 45 35 31 29 29 28 29 30 30 30 31 32 32
9 9 10 9 9 10 12 13 10 9 13 14 13 13 12 10 9 9 9 10 12 11 11 10 12 13 13 18 23 19 14 15 15 16 15 16 16 16 16 14 12 14 14 13 15 16 15 16 17 19 23 24 24 29 29 28 27 22 25 30 22 19 18 20 24 23 25 26 25 27 30 33 35 45 53 43 34 31 31 32 31 31 32 32 33 34 34 35
9 9 9 9 9 9 13 14 10 10 13 14 13 12 12 11 9 8 9 10 11 11 11 10 12 17 17 16 19 17 15 16 15 15 16 16 16 16 16 15 14 14 14 14 16 14 14 16 16 23 28 23 23 30 28 25 22 19 31 35 22 21 23 19 21 22 24 27 24 29 38 42 43 48 47 39 35 32 32 34 33 34 34 34 35 35 36 37
9 9 9 9 9 9 13 13 10 12 13 12 12 12 13 12 11 10 10 11 11 11 11 11 13 18 25 23 17 16 17 16 15 14 15 16 16 15 15 16 14 14 14 14 15 13 14 17 18 24 27 23 26 30 26 21 17 18 29 33 29 37 36 22 20 20 21 26 24 35 55 54 48 49 44 39 36 34 36 37 37 37 37 37 36 37 37 36
9 10 9 9 9 8 11 12 10 12 12 12 12 13 14 13 13 12 11 11 11 12 11 15 15 16 26 23 14 16 17 16 15 14 15 16 16 15 15 16 15 14 13 14 15 14 14 14 17 24 28 27 27 30 34 27 20 24 32 40 48 50 37 24 24 21 21 28 26 39 62 58 50 51 44 40 37 36 40 39 38 40 39 40 39 39 38 36
10 10 9 9 9 8 10 12 11 12 12 13 14 14 15 15 14 11 12 12 12 13 14 20 17 18 27 19 11 15 15 15 15 13 16 17 17 16 16 16 15 14 13 14 15 13 13 15 22 30 30 28 30 38 45 36 33 38 38 48 62 53 34 28 30 28 28 31 31 45 64 59 52 51 44 40 38 38 41 40 40 41 40 41 42 42 41 39
10 10 10 10 10 8 10 11 12 12 12 15 17 17 17 18 17 14 14 15 16 16 16 20 17 19 28 18 12 15 14 16 16 14 16 17 18 17 17 16 15 14 14 14 14 13 13 17 28 31 27 29 33 45 55 52 55 57 44 42 50 46 40 39 35 33 33 34 36 46 60 60 54 50 44 40 40 40 44 44 42 42 43 43 44 45 44 43
11 10 10 10 10 9 9 11 12 12 14 16 16 16 17 18 18 17 18 19 19 16 15 15 12 19 25 16 14 17 17 17 14 15 16 17 18 18 19 16 15 15 13 14 14 15 16 23 33 30 28 32 34 50 68 63 57 61 58 52 51 48 45 46 42 37 36 40 44 46 54 60 55 48 46 43 42 44 46 46 46 45 46 47 47 48 47 47
11 10 11 10 10 9 9 12 12 11 14 18 17 18 18 16 15 16 20 22 20 18 19 17 17 27 27 19 18 18 18 17 15 16 16 17 17 18 20 18 17 15 13 21 23 24 28 33 35 31 35 37 36 51 63 54 45 50 56 58 61 57 47 49 51 43 41 49 53 54 59 60 54 50 48 45 43 47 48 47 48 48 49 51 52 53 51 51
10 10 10 9 10 9 9 12 11 9 11 15 16 16 16 18 19 17 18 21 22 25 27 25 26 31 26 19 19 18 17 15 15 17 16 18 17 16 19 18 18 19 27 35 31 29 37 40 40 43 46 44 42 46 45 39 37 43 50 51 57 56 46 49 52 44 45 54 58 59 64 61 56 53 50 48 46 49 50 49 50 51 52 54 55 57 56 55
9 10 9 9 9 8 10 11 11 11 10 11 11 16 25 31 29 26 28 31 30 30 29 28 26 23 21 20 19 17 16 15 15 19 19 18 17 17 20 20 23 32 43 44 32 28 36 46 54 50 44 43 40 37 40 41 38 46 57 57 55 51 43 43 49 49 49 60 64 60 63 63 60 57 52 50 50 52 53 53 55 54 54 56 57 60 58 57
9 9 8 10 9 8 11 11 9 13 18 18 18 32 45 44 35 31 38 39 32 29 25 23 20 18 19 19 17 18 18 17 17 20 20 17 19 22 26 29 34 38 41 40 34 29 34 50 54 41 36 41 38 36 49 52 45 49 53 54 55 48 40 39 47 51 50 63 70 63 68 70 64 60 56 53 54 55 55 55 56 57 56 57 59 60 59 58
9 8 9 9 9 10 10 10 8 13 28 33 32 45 52 47 39 33 36 35 29 26 23 19 19 19 19 16 16 18 19 21 21 21 20 20 23 28 30 32 37 39 38 42 41 37 44 51 44 35 36 40 37 40 53 53 48 48 47 55 61 52 48 50 52 50 49 64 73 67 73 73 64 61 57 56 57 55 54 55 55 56 57 57 59 60 59 60
9 9 11 9 9 10 9 12 8 9 25 32 34 45 46 42 37 32 35 39 35 31 26 23 21 21 21 19 17 18 21 24 26 24 21 22 28 33 36 34 36 37 37 43 45 46 51 46 37 38 37 35 34 42 55 56 49 47 45 51 53 49 52 56 58 57 54 62 69 70 77 75 66 63 60 56 57 56 56 59 56 56 58 57 59 61 59 61
10 11 11 9 10 10 12 14 9 13 21 22 28 35 35 35 34 34 39 43 40 34 29 22 19 21 22 20 18 20 23 23 25 26 21 24 31 36 40 39 40 43 42 44 44 47 49 40 38 41 36 35 35 41 57 62 57 54 52 49 46 49 52 52 57 61 62 62 64 73 80 80 76 71 68 62 57 58 57 60 60 59 62 61 63 64 64 66
12 11 10 10 10 10 15 15 16 27 29 24 28 29 28 27 26 29 38 45 40 30 29 23 19 22 20 20 21 20 24 24 24 25 21 24 31 39 41 37 45 53 50 46 42 46 46 39 41 42 42 47 43 42 52 61 65 58 49 46 44 47 52 57 59 59 66 69 66 64 57 66 83 79 73 69 63 64 61 62 65 62 63 65 66 68 68 70
11 11 11 11 10 11 20 23 22 32 39 35 26 23 24 22 22 24 39 62 51 28 29 27 23 25 21 23 24 25 34 32 22 20 23 23 26 38 46 44 52 56 48 44 44 45 44 42 45 46 52 57 51 45 45 56 65 51 36 40 42 44 52 61 62 62 69 69 64 55 33 41 78 83 74 72 68 68 66 65 67 64 63 65 66 67 68 69
11 11 10 10 10 14 26 32 31 38 55 54 30 19 22 21 21 20 42 71 52 25 30 30 23 24 24 25 25 32 41 36 26 23 24 25 24 36 49 54 57 54 50 46 44 45 45 49 50 49 56 60 53 47 45 51 54 39 30 38 43 43 48 54 59 67 68 57 55 54 32 30 63 80 74 73 74 73 71 68 67 64 63 64 65 65 67 70
13 10 11 11 9 13 20 32 41 44 50 46 29 20 21 22 21 25 46 55 32 22 32 30 22 20 25 28 26 35 39 35 38 32 23 23 26 35 48 55 52 53 53 44 42 48 48 51 52 47 49 51 45 43 48 49 47 45 41 43 48 45 48 55 58 65 63 50 49 51 39 32 55 80 78 72 79 79 74 71 67 65 62 62 64 66 69 71
14 12 11 10 13 16 15 24 38 39 32 27 25 22 21 23 23 39 52 37 25 33 33 29 26 24 36 39 32 38 37 34 40 36 25 25 28 34 46 48 41 46 49 41 46 49 41 44 47 43 42 42 39 41 48 44 42 51 45 45 61 62 60 61 56 59 56 50 51 45 39 36 49 80 87 79 83 81 73 70 67 65 63 62 65 67 70 72
14 15 12 11 18 20 20 24 27 29 29 27 26 21 23 31 41 57 50 27 34 44 35 34 34 33 48 50 44 46 42 37 40 37 33 32 31 36 48 50 46 53 57 53 55 51 48 55 51 42 39 35 34 35 41 44 41 44 40 45 64 66 61 59 58 59 46 48 56 40 34 35 40 69 85 80 81 76 72 72 69 67 66 64 66 68 70 73
18 18 14 13 18 21 38 47 32 27 32 27 26 26 31 44 60 63 38 21 39 47 39 43 45 46 53 49 44 50 50 47 46 44 44 45 42 43 51 57 60 66 68 66 63 54 58 65 52 41 37 36 38 31 35 53 51 37 33 38 42 41 47 54 66 66 43 46 56 35 29 34 36 57 70 69 73 72 72 74 70 68 67 67 67 70 73 74
23 22 18 18 18 18 38 48 33 30 32 26 32 43 49 52 51 47 38 34 41 43 40 43 49 52 54 52 47 48 53 51 47 48 52 55 57 57 58 60 65 63 57 63 66 57 58 57 49 48 43 37 42 38 37 51 52 37 33 43 49 51 52 51 61 60 38 39 45 27 27 35 34 49 64 68 72 73 73 73 69 67 67 68 70 72 75 76
26 27 22 22 22 20 27 33 32 35 31 29 44 56 61 56 38 33 46 48 39 41 44 46 55 58 56 58 52 51 56 49 46 49 51 58 65 68 63 59 62 56 50 56 58 56 59 54 52 55 47 39 42 45 38 33 39 42 36 45 62 64 55 51 54 51 39 39 37 26 34 45 40 48 67 72 72 74 73 70 70 70 67 69 71 73 77 77
27 31 26 22 24 24 25 29 34 36 29 33 55 63 53 45 37 36 49 52 46 50 52 52 60 58 53 52 46 51 55 45 46 51 51 58 66 71 70 62 58 57 60 58 47 49 52 40 42 46 40 41 45 43 39 36 45 53 42 42 59 60 55 58 54 48 51 52 44 35 43 54 48 52 68 69 67 71 68 66 70 71 71 71 73 75 77 79
25 33 30 23 25 25 24 27 29 32 31 30 51 68 52 37 40 46 54 60 57 55 58 62 62 54 51 49 46 51 49 42 52 60 58 60 65 70 69 62 58 59 65 57 42 45 47 35 38 43 37 41 44 40 44 45 38 41 40 38 50 53 55 69 65 53 55 61 64 56 48 54 56 63 75 68 64 68 65 67 70 68 73 74 74 77 77 79
25 37 31 23 26 24 26 31 25 30 37 30 40 62 58 46 49 57 60 60 58 58 62 62 57 55 54 50 50 53 45 40 50 61 64 63 65 66 64 61 57 58 64 61 50 47 47 46 46 45 41 41 42 40 42 35 21 27 36 30 37 47 53 67 69 61 54 51 56 43 29 41 49 56 74 72 67 71 70 73 73 70 74 75 74 77 77 79
27 37 30 25 25 21 28 35 30 32 36 35 47 58 56 54 59 71 74 62 59 64 63 52 45 49 53 49 50 52 50 47 47 53 59 58 57 58 64 65 57 55 60 62 60 53 52 56 53 48 44 41 46 49 46 40 29 30 35 31 36 47 54 57 56 64 64 50 47 35 26 40 36 37 69 82 76 75 73 75 75 73 76 77 77 77 77 81
30 34 29 25 22 20 29 33 31 34 32 44 67 66 61 65 65 74 81 69 64 65 60 54 46 44 49 52 50 50 53 54 53 55 54 53 55 56 62 66 59 59 65 66 66 60 56 55 48 44 42 44 55 55 48 48 43 39 37 37 38 40 54 59 48 56 58 49 57 54 43 46 44 52 75 80 76 75 73 75 76 76 76 77 77 76 78 81
32 39 34 24 18 21 28 26 25 32 36 55 78 69 65 74 71 76 82 71 67 64 56 54 49 48 53 53 52 53 53 50 52 55 51 52 58 58 57 58 58 65 73 70 59 52 56 51 42 41 39 43 52 47 43 45 44 47 46 44 48 51 59 59 50 57 56 55 68 64 52 48 50 69 77 67 69 73 69 73 74 74 76 77 77 77 78 79
37 42 30 16 18 21 19 17 26 45 55 66 79 72 66 71 70 75 81 73 67 60 54 55 54 54 56 53 53 55 51 47 51 57 57 58 61 62 61 62 68 74 77 71 56 54 62 51 45 52 42 38 45 43 46 47 43 52 55 50 52 57 56 45 46 62 63 67 71 61 56 47 38 59 68 59 66 70 67 71 71 73 77 80 81 79 79 78
44 46 31 18 20 17 15 23 39 63 73 71 74 70 63 65 66 69 80 83 71 56 53 58 58 56 57 55 55 54 53 54 56 57 59 59 58 62 67 71 78 78 72 68 58 57 59 44 46 59 48 44 51 46 44 46 45 50 56 55 58 68 65 42 49 72 67 65 68 59 56 41 32 53 60 57 67 70 70 72 71 76 78 79 80 77 78 77
49 47 30 23 21 12 20 45 63 79 82 71 68 65 61 64 59 55 66 73 62 51 52 56 57 59 61 58 55 56 58 60 60 58 59 62 60 60 66 74 81 77 68 65 57 53 58 53 51 56 48 45 50 49 50 53 50 45 44 46 57 77 75 49 58 81 70 60 63 66 67 48 41 58 59 59 69 69 73 76 72 76 76 76 77 75 75 74
49 37 22 25 24 11 23 54 72 79 74 63 62 60 60 64 57 52 58 61 56 53 52 53 56 57 57 55 55 58 58 56 57 57 58 66 65 61 69 77 74 69 70 71 64 57 58 53 48 57 63 57 52 53 55 52 49 52 51 44 49 73 81 73 78 80 71 67 58 61 72 55 48 63 61 62 71 68 72 76 72 74 73 73 75 72 70 66
42 31 24 25 17 12 33 57 66 68 62 56 61 62 61 64 66 66 62 59 59 55 52 55 56 52 52 55 55 55 54 53 54 54 56 64 64 61 73 78 67 65 71 74 69 60 52 42 40 53 59 54 58 62 58 54 52 56 58 51 57 77 80 78 81 73 73 77 57 58 72 54 50 68 64 63 74 71 72 74 72 71 68 66 65 61 58 54
42 35 30 28 20 25 49 62 61 62 62 63 64 63 61 60 64 70 63 58 61 57 51 51 52 52 53 55 55 53 53 52 51 51 53 59 63 66 73 73 66 68 74 77 73 64 61 51 40 44 42 32 38 42 42 53 57 53 56 55 61 75 70 66 76 80 83 80 64 68 67 40 40 64 67 69 78 76 72 72 71 69 66 62 55 48 48 47
47 43 41 41 35 42 60 68 68 62 61 70 65 54 58 59 59 67 64 57 60 58 50 49 51 53 52 53 55 53 54 54 51 54 59 61 62 65 72 71 66 72 81 84 76 67 72 65 43 45 54 39 30 28 28 39 42 38 49 57 63 74 71 70 81 84 84 82 72 66 56 37 37 47 52 62 71 71 67 60 60 61 57 53 48 46 48 48
50 48 51 45 36 49 66 70 72 62 57 69 62 44 54 60 56 61 56 49 55 56 52 54 55 53 52 56 57 53 54 55 52 54 60 64 61 58 67 69 66 77 85 78 72 64 63 65 52 46 51 41 31 29 27 32 33 30 39 52 65 79 76 70 74 71 69 72 63 49 48 51 44 33 34 45 52 56 56 52 52 51 48 47 47 50 53 51
46 47 51 44 37 54 64 58 63 63 58 69 62 45 55 59 52 58 56 51 57 55 51 56 59 55 55 58 60 59 55 51 53 58 57 60 62 56 58 62 63 76 75 58 62 61 47 55 62 53 50 48 41 36 34 37 38 36 39 44 57 79 83 72 67 63 60 61 52 40 45 51 43 35 37 42 46 51 52 50 49 46 46 49 50 51 53 52
45 48 48 47 48 54 55 53 59 56 54 68 64 50 58 58 49 56 60 57 59 54 50 57 59 57 57 58 62 62 55 49 52 63 66 63 62 61 63 61 59 66 62 47 57 60 45 56 72 65 60 57 44 40 45 48 46 43 44 43 46 67 82 76 67 62 61 63 56 48 53 55 46 43 46 46 49 52 48 47 47 46 49 52 53 55 55 53
42 44 40 49 57 54 53 56 59 56 55 67 61 45 55 62 55 59 62 59 58 54 56 62 61 60 59 57 60 58 59 60 54 59 68 62 58 65 68 61 54 54 51 52 65 59 39 52 74 70 66 66 53 45 46 47 49 46 39 37 39 49 65 73 70 66 67 70 65 62 71 69 52 45 51 52 51 49 44 44 47 48 52 56 57 57 57 56
36 35 29 39 47 46 47 50 60 66 59 62 59 46 53 62 59 61 62 61 63 62 66 69 66 67 62 55 61 66 67 71 65 64 70 62 57 62 59 54 56 55 54 64 80 70 43 50 72 63 54 60 50 39 40 41 42 44 40 37 37 39 50 59 58 56 57 57 58 65 71 61 43 40 49 50 48 47 45 46 51 54 56 58 59 60 60 59
32 30 33 44 42 39 46 52 64 67 51 53 63 56 58 65 62 60 56 59 71 70 70 73 67 67 66 57 63 74 73 71 69 70 71 62 59 63 61 60 61 62 69 77 86 87 69 60 66 57 52 62 51 36 43 43 38 47 54 46 35 35 44 49 48 48 47 46 52 59 52 38 34 40 44 42 42 46 48 49 55 58 58 59 60 59 57 55
Wind_Speed
7 7 7 6 6 5 4 3 3 3 3 3 4 4 5 6 6 6 6 6 7 7 7 7 8 9 9 7 3 1 2 6 10 14 10 9 13 13 14 13 11 10 10 9 7 7 7 6 8 10 9 6 2 2 2 3 2 5 3 2 1 2 2 2 1 1 4 4 6 9 9 11 6 4 6 12 18 14 14 13 10 13 14 16 19 22 24 23
7 7 6 6 6 5 5 4 5 5 5 5 5 5 6 6 6 6 7 7 7 8 8 8 8 9 9 6 2 1 3 6 11 15 12 13 15 13 13 11 9 10 10 8 7 8 7 5 8 7 4 2 2 2 1 2 2 3 3 2 3 3 1 2 3 4 4 6 10 11 13 15 8 5 6 10 14 17 17 13 8 11 11 15 18 20 20 17
6 6 6 7 6 6 5 5 6 6 6 6 6 7 7 7 7 7 7 7 8 8 8 8 8 8 9 6 2 0 1 2 5 8 12 16 14 12 12 10 8 10 9 7 8 8 7 8 11 7 1 1 3 2 2 1 0 2 3 2 5 4 4 6 5 5 3 7 12 10 14 19 13 8 5 9 16 19 17 12 10 10 9 10 14 19 22 24
7 7 7 7 6 6 6 7 7 7 7 7 7 7 7 7 7 7 7 7 7 6 6 6 6 7 7 5 1 0 2 4 2 4 12 16 14 12 10 9 8 9 9 7 7 7 8 11 10 5 1 2 3 2 3 3 1 1 4 4 6 3 6 6 5 5 5 10 12 9 14 18 14 14 8 11 16 14 13 13 13 14 13 13 17 24 29 31
8 8 7 7 7 7 8 9 9 8 8 7 7 7 7 7 7 7 6 6 6 5 5 5 5 5 6 4 1 2 3 4 3 6 14 16 15 11 7 8 7 9 9 7 7 8 10 8 5 4 2 2 3 1 3 5 4 1 3 5 3 3 6 3 5 7 8 12 14 13 14 10 10 16 15 18 16 8 9 12 15 16 16 16 18 24 28 29
8 8 7 8 8 8 9 9 9 9 8 8 8 8 8 7 7 6 6 6 5 4 5 4 4 5 6 4 2 3 4 2 4 9 15 17 15 11 6 7 8 9 10 8 8 8 8 5 1 2 0 1 2 2 5 4 5 2 3 2 5 7 7 1 5 10 12 17 15 12 11 10 16 16 15 21 17 10 11 13 17 19 20 23 25 26 26 26
8 8 8 9 9 9 9 8 8 9 9 9 9 9 9 9 8 6 6 5 5 4 4 4 4 5 6 4 4 4 5 1 6 11 15 16 15 11 6 6 8 9 9 9 9 6 4 4 1 2 1 1 3 4 4 0 5 4 1 3 7 9 8 4 9 15 18 20 14 13 14 15 19 14 12 19 15 12 15 18 21 22 26 29 28 25 24 25
8 9 9 9 9 9 8 8 9 11 11 10 9 9 9 10 9 8 6 4 3 3 3 4 4 5 6 3 3 5 4 2 9 12 13 16 15 10 7 6 9 10 9 9 9 4 3 5 3 1 2 1 1 3 3 5 5 4 1 2 6 8 7 8 13 18 18 15 14 19 19 16 18 16 14 15 14 13 16 21 22 23 27 26 23 23 23 24
9 9 10 9 9 8 8 9 12 14 12 11 10 9 8 8 8 8 6 4 2 1 2 3 4 7 7 2 4 4 3 5 9 12 12 17 16 9 8 7 9 10 8 10 9 5 3 3 3 2 1 2 2 4 3 5 2 1 3 3 6 6 6 10 13 16 13 9 16 22 17 11 12 14 15 13 12 13 17 19 18 20 21 18 17 20 22 22
10 10 10 10 10 9 9 10 14 14 11 11 11 10 9 7 4 4 4 2 0 0 1 3 5 9 7 2 5 4 5 7 10 12 11 17 16 8 9 8 8 8 7 10 10 9 4 2 2 2 1 1 3 4 3 4 1 2 5 5 8 8 7 12 15 16 13 11 20 23 15 12 9 9 10 8 10 13 17 16 14 17 16 13 15 18 21 21
10 10 11 11 12 10 9 10 13 12 10 10 10 10 10 8 5 1 3 2 2 2 0 2 6 13 15 9 7 3 6 8 11 13 12 17 15 8 9 8 7 7 7 9 9 8 5 3 4 2 1 1 2 4 3 1 1 3 7 7 8 10 9 13 15 13 11 10 18 24 18 15 13 11 10 7 10 13 16 14 13 14 12 12 13 15 19 20
11 11 12 12 13 11 8 10 12 10 9 9 9 9 9 8 7 5 5 4 4 4 2 3 4 8 14 13 5 2 7 10 13 15 13 17 15 6 7 9 8 7 6 7 6 7 7 6 7 4 1 1 1 2 1 2 1 4 7 7 6 9 8 6 8 9 10 7 10 16 15 13 12 11 11 9 10 13 15 13 11 11 10 10 10 12 16 18
11 12 12 13 13 11 9 10 11 9 8 8 8 8 7 7 7 6 7 6 6 4 3 4 5 4 7 6 2 5 9 10 14 17 14 18 16 4 5 9 8 7 5 5 6 7 6 7 8 4 1 2 1 0 1 1 2 2 4 7 4 7 6 6 3 7 9 4 4 7 7 6 9 10 10 8 10 14 14 11 9 8 8 8 8 9 11 16
11 11 12 13 14 12 10 10 11 9 8 8 8 8 8 8 8 8 8 7 6 5 6 8 9 9 7 2 1 8 11 9 14 19 15 19 17 4 3 7 5 6 4 3 5 6 6 7 7 3 2 3 0 1 2 3 3 2 2 3 3 4 2 7 4 4 7 3 5 12 6 2 7 8 9 7 9 13 12 9 8 7 6 7 7 7 8 13
11 11 12 13 14 13 11 10 11 10 10 12 14 14 13 13 11 10 9 8 8 7 7 6 6 8 6 1 2 9 13 10 13 19 17 18 15 5 5 6 3 4 4 3 4 5 6 7 6 4 3 4 3 3 3 3 3 3 3 2 4 4 2 5 9 5 7 5 9 13 7 3 6 7 7 8 9 12 10 8 7 7 7 7 6 7 6 9
11 11 12 12 13 14 12 9 9 11 13 16 18 18 16 15 13 12 12 12 13 13 9 4 2 7 5 1 4 9 10 9 13 18 19 17 11 6 9 7 2 2 2 3 4 4 5 5 5 5 4 6 5 3 3 4 4 4 3 2 3 4 3 2 9 10 6 5 11 9 8 4 5 6 7 8 9 10 9 7 7 7 6 6 5 5 5 7
11 11 11 12 13 13 11 7 6 8 12 18 22 23 22 19 13 10 8 9 11 13 14 13 8 10 5 3 3 7 10 11 14 19 22 16 7 7 10 5 2 2 1 3 5 5 4 4 3 3 4 6 5 3 5 5 4 4 4 3 1 4 3 2 4 10 11 11 11 12 11 7 5 6 7 7 8 8 8 7 6 6 5 5 5 4 5 5
10 10 11 11 12 12 10 6 4 5 10 16 18 19 22 24 23 19 13 8 5 5 10 15 12 8 3 6 4 9 14 14 14 21 25 17 7 8 6 2 3 4 3 4 6 6 5 4 3 3 5 6 7 7 6 1 1 2 2 2 2 3 4 3 2 4 12 15 12 12 11 8 7 6 6 6 7 7 7 7 6 6 5 4 4 4 4 4
10 10 10 11 11 10 9 5 4 4 7 9 5 4 7 13 20 25 24 17 9 4 3 7 7 5 1 5 7 13 14 11 14 22 28 22 12 6 2 2 2 4 4 3 6 7 4 4 5 5 6 6 6 7 2 3 3 2 1 2 1 4 3 4 4 4 12 14 9 10 9 8 7 5 6 6 6 7 6 6 5 5 5 4 4 4 4 4
10 11 10 11 10 9 7 4 4 5 5 8 6 2 1 2 7 10 14 15 8 5 5 1 2 4 1 4 9 16 11 7 13 21 30 26 12 6 4 2 4 6 5 4 4 5 4 7 6 4 5 5 6 6 3 1 1 1 3 4 4 5 3 3 6 4 9 11 5 7 9 7 6 5 5 5 5 6 6 5 5 5 4 5 4 5 5 5
11 11 10 10 10 9 6 2 3 4 6 4 2 1 1 2 5 1 2 8 7 7 9 4 5 6 3 3 9 16 6 5 13 20 31 26 8 5 7 5 7 6 4 5 5 2 5 8 5 6 4 4 6 7 5 5 6 5 5 5 6 5 4 2 7 5 3 9 3 5 9 5 4 4 3 4 5 5 6 6 6 6 5 5 5 6 6 5
11 10 10 10 9 9 4 2 4 2 5 5 4 4 3 4 8 8 4 6 5 8 10 7 8 6 6 4 11 15 4 6 13 18 30 25 10 6 5 6 9 5 5 5 4 4 7 7 8 11 4 5 7 8 8 9 8 7 4 5 4 3 4 4 5 3 3 7 5 5 7 4 2 3 3 3 3 2 4 6 6 7 7 6 6 6 6 6
10 10 10 10 9 8 4 4 4 3 4 5 6 6 6 7 10 10 5 6 1 4 4 5 7 5 6 5 11 14 8 8 7 12 23 19 7 4 4 7 9 8 8 7 6 5 4 4 10 9 6 8 9 11 10 8 7 6 5 5 1 3 2 1 2 5 6 5 8 7 6 3 2 2 2 2 3 2 3 4 4 6 7 7 6 6 6 7
10 11 11 10 10 6 4 5 5 5 7 8 10 9 8 7 8 8 4 5 2 2 1 2 4 3 4 5 11 8 5 5 4 9 18 13 4 3 3 5 8 9 7 9 10 9 4 6 9 5 9 9 8 11 10 6 4 3 3 5 2 2 0 3 1 4 7 7 7 8 5 1 4 3 3 3 3 3 3 4 3 4 5 5 4 5 5 6
12 13 12 10 9 4 3 4 5 6 6 7 9 7 6 4 5 4 3 4 3 3 2 2 2 5 5 10 12 2 4 5 5 9 15 11 4 3 2 2 5 5 4 9 12 9 5 7 6 7 8 8 8 9 8 5 3 4 1 4 3 2 3 3 1 3 5 3 4 5 3 2 4 5 5 4 4 5 4 5 5 5 5 5 5 5 5 5
14 14 12 9 7 4 2 2 3 4 4 4 5 4 3 4 3 1 3 4 4 3 4 4 4 8 10 12 12 2 5 5 5 12 18 15 5 1 3 3 2 3 4 6 7 4 5 8 6 8 6 8 8 5 4 5 5 3 2 1 1 1 1 2 2 3 3 2 5 6 2 2 3 5 6 6 6 7 6 7 8 6 6 6 6 6 6 6
16 15 12 8 7 4 2 2 2 2 2 2 2 3 3 4 4 1 3 5 4 2 4 5 4 9 9 10 11 4 3 6 6 13 17 17 10 4 6 5 2 1 2 5 4 0 3 8 9 9 7 7 7 4 4 5 5 2 4 3 5 5 4 1 5 4 3 1 2 3 3 2 3 3 5 7 6 6 7 8 8 8 8 8 7 7 7 7
18 16 12 8 6 4 3 3 2 3 3 3 2 2 4 6 4 2 5 4 3 2 1 3 3 7 7 9 12 6 3 5 3 8 14 21 15 5 8 6 3 4 4 6 4 3 2 5 7 7 7 5 3 3 5 3 3 6 7 7 7 5 4 2 5 3 2 3 1 4 0 0 4 2 2 5 5 7 10 10 10 9 9 9 8 8 8 7
19 16 13 7 3 2 3 3 2 4 4 4 3 4 7 7 3 4 5 2 2 2 1 1 3 6 7 7 9 5 1 3 3 5 11 19 16 7 6 5 6 9 9 7 6 3 2 1 1 4 5 3 3 6 6 1 2 8 7 6 3 1 3 2 4 2 2 3 2 6 2 2 4 2 3 3 4 8 10 10 10 9 9 9 8 8 8 7
19 18 15 8 2 1 2 3 5 5 4 4 5 6 8 6 4 5 4 0 1 2 1 3 2 3 6 7 6 6 6 5 3 4 6 8 12 10 4 3 7 9 8 8 5 2 2 2 1 3 3 3 4 5 4 2 2 7 7 6 5 5 5 3 2 3 5 2 4 5 1 3 2 3 5 5 5 7 7 6 7 9 8 9 8 7 8 7
19 21 20 15 7 3 1 3 4 4 4 6 7 6 6 4 4 6 3 1 0 3 3 4 3 3 6 6 4 6 6 6 6 6 6 5 10 10 6 5 6 5 5 6 4 3 5 6 4 1 2 3 2 4 5 3 5 7 5 5 4 4 5 5 5 4 5 2 6 4 3 2 2 5 5 7 6 5 7 7 9 10 10 9 8 7 7 7
18 21 22 21 15 8 3 2 2 4 5 8 7 4 5 5 5 3 1 3 1 2 2 2 3 4 5 4 4 5 4 5 5 6 5 4 6 6 5 4 2 2 5 2 1 4 4 3 3 4 4 6 5 4 6 7 7 7 5 5 5 3 5 4 4 3 1 5 6 2 5 1 4 5 5 6 6 4 5 7 8 11 10 9 8 7 6 6
15 20 22 23 21 15 8 4 3 6 7 8 5 4 6 6 3 1 2 2 0 1 1 0 4 4 4 5 4 5 3 3 4 6 4 4 4 4 4 4 3 2 2 1 1 3 3 4 5 6 4 4 5 4 3 4 5 6 4 4 4 3 4 2 4 3 2 5 6 4 2 2 4 4 4 6 6 5 4 4 7 9 10 9 8 7 6 6
11 17 20 22 23 21 13 7 5 8 8 5 4 6 8 5 0 0 2 2 1 2 2 1 4 5 5 4 2 3 3 2 2 5 5 3 5 4 4 7 7 3 2 3 1 1 2 2 4 3 2 2 3 3 4 2 2 3 1 4 4 4 3 2 2 1 3 5 7 5 1 4 3 3 3 4 4 4 3 3 4 5 7 7 6 6 6 7
6 13 19 21 21 21 16 9 5 6 5 6 7 7 6 3 2 1 1 3 2 3 4 3 3 4 4 3 2 2 1 1 1 5 5 4 3 3 4 5 6 4 3 3 1 1 3 1 3 1 1 2 2 2 3 5 1 3 1 5 2 2 4 3 3 5 3 3 5 3 1 5 3 2 4 1 2 2 3 3 3 4 5 5 5 6 7 7
4 9 16 21 21 21 18 9 3 3 4 7 8 6 3 2 2 1 1 1 0 1 4 5 5 4 4 3 3 5 2 0 1 3 3 2 2 2 3 3 4 5 4 3 1 1 2 2 4 1 3 1 2 3 2 4 1 2 3 2 3 3 6 3 3 3 1 1 4 3 3 4 3 3 4 2 2 4 5 5 5 6 6 5 6 7 7 7
3 4 10 20 23 22 20 11 4 5 5 8 8 4 1 2 2 2 1 1 0 1 2 3 2 2 2 2 3 6 5 2 2 3 2 1 1 3 3 4 3 4 3 1 1 1 3 1 5 1 0 4 3 1 4 1 4 4 1 2 2 1 4 3 1 3 4 1 4 4 5 4 3 2 3 3 6 8 7 7 7 7 7 7 8 8 8 7
3 1 5 18 25 22 17 10 8 7 7 8 7 3 2 1 1 1 0 0 0 2 4 2 0 1 1 1 2 6 5 3 3 3 2 1 1 2 2 3 3 3 4 2 2 1 3 1 5 3 3 3 2 5 5 6 3 5 3 2 3 2 1 1 1 1 2 3 4 5 5 4 3 4 3 4 9 10 9 8 8 9 9 9 9 8 8 6
4 2 3 17 23 17 12 13 11 8 8 7 4 2 2 1 1 1 2 1 1 2 3 1 0 2 2 2 1 4 4 2 2 2 2 1 1 2 3 1 3 4 6 3 3 2 1 3 3 4 1 0 3 3 1 3 4 3 3 3 2 3 3 1 1 2 2 2 4 4 3 3 5 5 5 8 10 10 9 8 8 10 10 8 8 7 7 6
2 3 3 18 19 9 15 22 15 8 7 5 2 2 2 1 1 3 4 2 1 2 2 0 1 2 1 1 1 1 2 2 2 2 1 0 1 0 1 0 2 5 6 4 3 1 2 3 2 5 3 0 0 1 3 4 0 2 3 3 2 1 1 0 1 2 3 2 2 3 4 6 6 4 6 9 9 9 9 8 8 9 8 7 6 6 6 6
3 4 5 19 14 1 9 19 12 5 5 4 2 3 2 2 1 2 3 2 1 1 2 3 2 2 1 1 1 1 1 3 2 2 0 1 2 0 2 2 1 3 4 5 4 2 2 2 2 3 3 1 2 3 2 4 4 4 3 2 2 1 3 2 3 3 1 3 4 2 5 9 6 4 6 8 7 8 9 8 7 7 7 7 6 6 7 7
6 3 6 18 10 6 10 10 4 4 5 2 1 2 1 1 1 2 2 1 1 1 2 3 2 1 1 1 1 1 2 2 2 1 1 1 2 2 2 2 1 1 2 2 2 1 1 3 1 2 3 3 4 4 1 1 2 3 2 3 4 3 5 5 2 3 1 1 2 2 3 8 5 4 6 6 7 7 7 8 7 7 7 7 7 7 7 7
4 2 7 17 6 11 15 7 3 6 4 0 1 1 2 2 1 1 2 3 2 1 3 2 1 1 1 1 0 2 2 1 0 0 2 1 1 3 3 2 1 2 2 1 1 1 1 3 2 3 4 3 4 5 4 3 4 2 1 2 4 3 4 5 5 3 1 3 2 1 3 8 5 2 4 4 5 6 5 7 7 6 6 6 7 8 7 7
3 2 6 17 11 8 9 4 2 4 2 1 3 2 3 2 2 2 2 2 1 1 2 1 0 1 0 1 2 1 1 1 0 1 2 2 1 3 3 0 1 2 1 2 2 0 1 1 2 2 4 6 6 6 6 4 1 1 3 2 3 4 6 4 2 3 0 5 5 3 5 8 5 2 2 2 3 5 6 6 6 6 6 6 6 6 6 6
4 2 4 16 20 13 5 4 6 6 3 3 4 2 2 3 1 2 1 1 1 2 2 0 0 1 0 1 2 1 1 1 1 1 1 1 1 1 2 1 2 3 2 3 3 1 1 2 3 4 1 2 3 3 3 3 2 2 2 3 4 6 7 4 2 3 2 5 5 5 6 8 6 2 3 5 4 6 8 7 6 7 7 7 6 5 5 5
3 3 2 8 14 10 4 2 5 6 5 5 4 2 3 2 2 1 2 1 1 1 2 0 0 2 2 2 2 1 1 2 1 1 1 1 2 2 3 3 2 3 3 3 2 2 2 1 2 5 6 6 6 7 5 1 3 5 4 5 5 5 6 6 4 3 5 3 4 8 10 13 14 9 6 7 6 7 8 7 6 7 7 7 6 5 5 5
3 2 1 1 4 5 5 5 4 4 3 4 3 1 2 2 1 2 2 0 0 1 2 1 2 2 0 1 2 1 2 1 2 2 1 2 2 3 2 3 2 3 4 2 2 3 3 2 2 4 6 7 7 9 7 2 5 9 7 6 7 7 7 7 6 7 4 2 5 10 9 10 15 13 10 9 7 7 8 8 7 7 6 6 5 5 5 5
3 2 1 2 2 2 2 2 3 5 4 4 3 1 2 3 1 1 1 1 2 1 1 2 3 2 2 2 2 0 1 1 1 1 1 2 1 3 2 1 2 3 4 2 1 4 4 3 4 3 5 9 8 10 9 5 6 8 9 9 8 8 10 11 12 10 6 4 11 11 8 10 14 16 15 12 9 9 9 8 7 5 4 5 5 5 5 5
3 3 1 2 4 4 2 1 4 6 6 5 3 2 3 3 1 1 1 2 3 2 1 1 2 1 1 2 3 1 2 0 1 3 2 2 1 0 0 3 2 3 4 2 2 2 3 3 4 3 5 9 9 10 9 6 5 7 9 10 9 10 13 14 13 11 9 11 16 15 15 17 16 15 14 12 9 8 6 3 3 4 5 5 5 5 6 6
2 3 1 4 4 1 1 2 4 5 4 4 3 1 2 4 3 2 0 2 0 3 2 2 3 3 1 1 2 2 4 4 3 5 3 3 2 2 3 2 2 1 2 2 1 1 1 2 2 2 3 8 8 6 5 5 5 7 11 11 8 9 11 11 11 9 8 11 15 14 14 16 14 10 9 8 7 5 3 2 3 5 5 5 5 6 7 7
5 5 6 7 4 2 2 2 4 5 3 3 2 1 0 2 4 3 1 1 3 1 1 3 2 3 1 0 1 4 6 5 5 6 6 5 4 4 3 2 4 2 0 1 0 2 1 1 2 4 2 7 6 4 4 4 5 8 13 14 10 8 7 7 7 8 8 9 10 9 9 12 10 5 4 6 5 5 6 6 5 4 4 5 6 7 7 6
7 5 6 7 3 2 2 2 3 4 1 1 1 2 1 2 2 3 2 1 1 2 3 4 2 1 1 1 4 6 5 5 5 6 5 4 3 4 3 3 5 5 3 3 1 1 2 2 1 2 1 6 6 4 4 5 6 7 9 9 8 7 6 6 6 8 9 7 6 7 9 11 9 7 8 9 7 7 7 5 4 5 5 5 6 6 5 3
Wind_Direction
22 20 19 19 17 17 15 5 350 334 324 307 291 277 274 276 282 291 299 309 315 325 333 343 358 3 5 355 336 221 114 97 83 65 60 11 353 347 345 338 334 331 319 313 324 340 319 286 258 249 246 250 220 227 237 211 89 62 86 105 242 239 263 259 49 62 112 103 56 37 43 70 38 3 73 48 38 44 47 44 54 58 63 73 83 94 96 97
17 16 12 11 8 6 0 347 333 319 309 300 294 284 279 279 282 288 296 306 314 322 332 340 353 2 8 2 340 161 125 97 71 52 30 360 353 345 343 341 338 337 328 325 343 352 340 311 300 287 228 194 226 207 189 241 89 100 133 127 227 199 46 12 82 59 70 110 85 57 54 56 20 354 58 59 41 37 40 22 32 65 68 78 88 97 97 91
5 4 2 3 360 356 350 338 329 315 305 294 288 284 279 282 285 289 292 300 310 318 332 341 351 1 8 6 339 302 148 82 46 31 6 358 353 342 344 343 343 346 340 337 336 333 317 297 306 311 172 212 256 164 139 278 49 161 133 131 244 175 78 15 54 69 67 105 93 73 63 57 31 22 55 79 58 40 40 17 18 57 67 73 71 72 69 60
354 353 353 353 346 343 337 332 326 316 308 295 290 284 276 280 281 284 287 294 304 314 329 338 347 357 8 8 15 136 73 49 14 329 350 358 354 346 350 345 353 357 348 346 333 321 311 302 305 321 73 293 293 106 152 210 177 156 138 177 239 145 86 4 18 52 58 79 90 90 73 68 50 43 48 74 64 38 36 26 29 48 50 57 55 55 56 54
351 351 350 347 341 336 333 330 326 320 315 305 300 292 286 286 281 283 284 289 297 308 326 337 340 352 10 12 114 123 74 45 329 330 347 354 355 350 357 358 6 3 355 356 339 327 315 302 313 353 49 279 310 72 203 207 155 144 201 192 248 97 98 359 11 44 57 71 75 70 67 80 69 49 49 66 69 49 39 36 42 49 46 53 57 56 55 54
352 351 348 344 340 335 333 332 329 327 320 313 306 298 294 290 286 289 289 294 299 309 325 333 329 346 9 18 122 111 89 88 313 344 346 348 352 351 10 6 5 2 354 349 340 337 322 310 337 348 68 257 258 227 239 216 130 140 263 49 46 74 100 37 34 56 66 71 67 70 76 88 83 64 54 65 69 64 53 48 51 52 53 57 57 56 53 52
352 350 348 343 339 336 337 338 336 332 324 316 306 296 290 284 284 284 289 300 301 313 326 327 328 342 360 31 96 75 86 113 331 344 340 345 351 355 14 3 359 356 351 348 339 339 344 9 346 233 175 275 256 262 271 54 90 111 275 39 73 81 96 101 74 74 76 78 79 84 80 74 82 79 61 65 64 60 55 51 54 53 53 56 55 54 54 54
354 351 348 345 343 342 344 347 345 339 334 326 316 305 293 282 275 271 279 287 296 320 316 318 332 343 353 30 104 65 55 309 333 344 340 349 354 360 8 358 356 350 356 348 324 317 357 26 12 1 64 262 281 322 337 46 43 77 44 20 91 91 95 96 84 84 83 87 86 77 74 77 88 86 67 65 62 57 57 52 52 53 52 52 52 52 53 54
0 358 355 353 350 348 350 352 350 347 344 341 338 335 322 300 279 265 265 264 284 313 301 335 348 349 352 18 95 68 351 325 344 350 352 350 348 359 357 342 346 350 2 348 342 24 40 37 16 19 30 291 22 3 16 62 15 81 73 54 96 102 92 83 79 85 84 85 81 73 71 79 93 87 65 59 66 63 60 54 49 53 53 50 52 52 53 54
9 7 6 2 357 354 353 354 356 354 352 353 352 355 356 347 317 260 239 238 212 153 309 0 21 18 17 52 80 62 335 353 3 359 359 345 340 356 354 339 344 357 4 357 20 52 62 54 326 291 280 324 19 4 31 81 171 146 95 77 91 100 88 84 86 90 87 80 82 78 65 52 53 80 76 60 68 69 63 56 50 55 57 55 55 54 55 57
17 16 13 8 7 4 359 359 1 1 2 1 358 2 10 16 29 112 170 166 140 129 62 22 58 58 61 75 81 62 347 2 8 4 357 343 344 355 354 352 360 9 2 8 41 47 38 13 335 337 37 28 9 10 40 106 174 121 91 66 73 87 87 96 106 109 97 89 94 89 73 53 50 73 91 84 71 72 70 62 56 60 61 60 61 59 59 59
22 20 15 13 13 11 7 5 7 11 11 4 358 2 13 29 51 96 124 129 129 126 131 63 80 78 66 66 73 38 4 8 8 3 352 347 355 2 5 14 16 21 3 2 25 20 23 8 14 57 174 185 47 22 65 243 102 94 86 83 76 76 72 79 111 131 117 143 139 95 66 42 48 77 92 94 85 77 75 68 62 64 65 64 65 66 63 62
24 21 16 15 13 13 12 10 19 23 11 358 357 5 22 40 54 86 104 114 122 111 117 77 76 99 72 64 38 16 11 12 9 3 354 348 353 3 10 16 14 16 7 355 355 354 15 15 25 71 183 72 55 292 117 348 65 82 78 105 103 64 29 357 73 131 111 171 204 80 64 38 50 80 90 92 93 84 78 74 72 69 69 70 69 71 69 66
22 18 14 12 10 14 14 19 32 28 14 18 32 43 50 55 62 86 94 101 108 91 103 99 88 89 82 101 15 15 3 5 8 5 359 345 350 14 0 12 9 358 8 5 353 351 13 13 13 37 39 63 287 297 51 17 56 74 47 85 89 84 21 353 26 112 84 37 63 82 95 93 69 78 85 89 90 89 89 86 85 84 80 79 75 78 74 70
16 12 10 7 6 12 14 28 44 39 46 60 64 66 64 62 68 86 89 91 90 84 105 102 86 86 77 88 12 6 354 355 4 3 360 347 356 26 351 2 349 341 16 9 354 356 10 19 27 46 1 355 17 29 28 13 38 46 52 12 12 93 144 15 15 33 100 61 46 86 107 88 87 86 87 92 87 90 97 98 98 95 92 91 84 83 81 75
8 6 6 3 1 8 11 31 57 54 64 77 74 69 67 64 69 81 86 89 79 69 69 31 59 109 91 15 340 355 350 349 355 358 358 355 1 14 352 351 303 310 20 11 4 352 8 41 55 64 24 7 23 42 53 37 8 3 69 82 31 101 156 48 21 14 90 78 22 71 126 120 93 90 89 92 92 95 99 102 101 99 99 99 93 87 86 81
1 359 359 357 357 3 6 25 66 70 79 89 83 74 69 66 72 85 91 95 79 64 54 34 68 111 78 3 347 342 332 334 349 355 359 2 354 348 353 0 5 343 351 12 10 358 22 50 43 46 39 26 9 35 70 41 345 337 30 66 50 113 130 124 60 24 54 80 59 73 104 113 103 98 94 93 100 103 104 108 106 105 104 96 96 90 85 85
353 351 352 351 352 358 0 12 51 83 105 102 88 78 71 66 69 73 71 83 81 49 40 25 45 96 22 353 347 325 322 327 348 358 2 7 350 335 336 316 1 15 34 20 11 15 35 35 41 53 22 16 14 39 79 107 258 307 350 38 347 30 72 80 97 53 66 79 86 88 94 109 112 106 103 104 109 109 113 118 117 115 114 109 104 97 94 89
346 346 346 344 347 355 357 359 21 62 140 147 123 81 70 62 62 60 55 61 67 51 45 354 20 110 267 317 320 329 330 337 360 2 3 3 350 343 324 240 342 45 69 40 10 15 41 38 41 47 8 359 12 26 81 207 206 214 246 110 42 30 63 90 82 104 98 83 75 94 106 121 121 124 125 125 119 114 120 121 122 126 124 126 122 118 116 106
345 344 343 343 345 353 360 353 2 38 137 186 219 277 23 46 48 39 33 50 70 96 126 277 14 99 318 295 329 350 357 5 11 5 3 359 347 4 22 2 30 46 65 88 45 2 47 62 42 26 354 348 2 352 326 285 315 75 79 68 68 64 38 116 124 151 111 87 59 91 106 116 115 122 131 133 125 121 128 126 132 141 141 146 146 145 139 135
350 348 347 347 345 352 5 5 359 48 106 144 189 75 120 120 85 150 337 45 50 70 88 52 55 70 356 302 349 3 8 356 6 5 4 4 10 28 5 14 46 39 37 89 92 11 51 63 12 331 339 8 9 347 3 53 52 54 84 78 58 53 345 39 130 188 110 88 99 109 102 97 95 96 92 109 120 135 148 147 153 154 155 163 158 159 155 152
358 354 353 351 347 353 18 57 16 63 110 109 97 82 126 133 125 159 150 79 30 42 74 54 56 50 352 0 6 8 29 8 5 0 1 7 30 40 9 36 62 55 10 42 79 40 47 42 334 321 343 54 24 9 43 69 68 54 62 80 53 14 341 7 87 103 51 91 148 149 108 107 116 105 82 91 111 136 149 154 169 166 166 174 170 171 164 156
6 359 356 356 354 359 52 81 48 69 93 113 103 90 116 123 139 156 118 98 49 3 59 58 57 27 353 14 3 9 43 30 360 347 357 6 24 40 53 57 67 67 37 46 83 79 71 351 320 330 33 62 37 25 45 58 65 64 58 79 52 353 35 327 23 50 32 74 144 146 109 120 157 116 122 153 144 125 115 125 156 166 172 180 176 172 165 162
7 2 358 358 2 12 96 87 68 77 77 96 94 94 121 129 151 159 104 90 87 335 340 98 85 42 354 348 349 6 66 38 8 350 357 10 12 4 72 85 73 67 60 74 80 77 71 319 315 12 53 54 49 36 40 52 52 45 77 105 128 321 146 229 237 88 48 47 127 129 85 179 192 172 205 199 169 180 157 136 138 153 161 159 147 144 155 163
7 5 1 357 5 28 132 87 67 93 87 87 89 96 114 124 160 161 94 78 40 319 327 21 46 16 343 340 344 350 123 49 34 1 358 14 16 350 34 86 80 75 92 80 73 68 31 328 339 45 43 36 52 47 41 65 49 351 32 123 140 216 196 212 231 118 77 13 203 144 59 290 201 185 205 194 176 198 196 181 185 181 170 160 153 158 162 166
10 6 4 359 4 28 147 99 70 115 106 76 84 112 120 131 158 128 82 74 14 317 350 354 356 1 350 344 340 11 83 14 357 12 13 16 9 93 45 350 65 114 148 85 72 83 8 344 21 53 42 37 45 45 35 59 58 356 282 142 66 298 199 144 114 114 119 237 215 160 126 275 226 208 206 186 187 205 202 199 200 194 191 186 185 187 182 177
13 7 6 5 5 22 144 141 101 134 126 98 98 118 134 144 143 48 62 56 3 348 1 332 335 1 357 353 353 54 85 305 331 15 19 22 13 65 60 14 30 29 204 87 59 26 0 359 22 39 39 42 41 14 349 42 70 296 279 325 331 307 280 192 107 123 200 160 115 176 177 239 259 237 195 176 186 214 213 211 208 200 199 199 196 193 186 183
13 7 6 6 2 24 127 147 142 121 109 141 146 130 152 148 141 60 74 74 350 13 7 304 340 359 353 4 18 73 193 278 16 1 7 31 27 48 59 31 71 35 4 92 107 267 322 18 24 39 37 33 29 296 290 31 70 257 277 318 303 263 233 177 106 123 224 96 38 278 188 125 277 285 143 175 198 230 226 216 210 205 202 201 197 192 186 183
13 8 7 5 354 36 116 134 121 116 116 138 134 142 153 140 114 51 71 111 337 5 202 330 355 341 345 8 20 41 353 353 64 338 1 31 26 42 71 23 71 67 33 72 127 213 217 94 85 78 46 352 287 277 263 108 15 280 295 342 339 67 89 96 108 104 38 93 238 286 18 82 282 262 161 201 230 234 229 217 210 209 206 202 199 196 193 191
18 20 18 17 15 31 109 103 86 109 127 136 139 149 146 121 78 58 45 59 1 340 304 23 9 327 6 21 2 3 25 15 0 2 15 29 23 33 63 13 56 76 46 48 86 174 258 325 352 81 36 284 265 294 275 162 356 323 341 15 29 33 39 55 77 83 57 21 253 264 325 105 295 263 195 199 222 216 209 208 211 211 210 209 204 201 197 194
25 30 29 30 34 16 48 83 78 115 132 136 141 137 121 68 54 87 74 269 323 346 351 9 348 354 21 40 9 346 13 0 346 25 24 11 26 25 21 13 27 55 43 33 42 15 358 2 358 334 341 352 23 8 351 1 20 18 19 32 32 1 9 21 2 42 69 286 250 262 349 91 231 263 220 213 235 213 189 193 202 206 211 212 208 205 200 197
26 31 33 33 34 34 59 90 92 120 132 141 135 100 86 47 30 90 301 308 334 346 357 329 316 347 6 36 26 344 358 3 1 40 43 34 42 40 49 35 338 42 34 13 33 17 3 349 336 319 342 28 51 27 353 354 17 27 26 46 56 12 9 14 340 7 88 246 255 327 6 329 235 254 225 214 233 227 201 196 196 201 208 212 211 210 204 197
28 29 31 32 35 39 54 78 99 123 137 143 121 53 74 78 44 246 302 336 16 296 342 321 312 337 17 41 10 340 16 16 3 26 41 82 61 35 57 32 4 88 61 58 85 16 338 306 344 360 346 21 68 75 12 332 354 7 11 62 88 78 36 347 306 338 302 266 289 333 0 265 277 283 225 204 217 215 199 196 199 200 204 211 211 208 206 206
29 28 30 31 33 35 39 55 98 128 131 115 79 50 66 79 169 244 334 298 266 332 358 11 334 346 31 55 336 332 38 14 23 42 17 39 46 6 358 6 11 39 72 62 69 80 72 321 341 20 316 349 45 97 155 186 318 314 219 106 110 131 129 185 224 259 270 279 301 337 18 219 255 297 253 209 207 201 177 191 201 200 206 208 207 208 209 212
33 29 29 27 28 28 28 41 98 132 120 82 65 60 77 105 224 121 324 270 298 341 326 339 34 36 10 7 344 351 61 322 67 71 26 28 54 1 341 346 357 17 61 71 340 112 103 252 265 249 325 68 37 304 149 123 345 281 118 84 74 172 145 160 202 207 229 296 297 314 241 220 217 292 299 294 158 197 217 224 211 223 228 206 204 218 217 215
41 31 29 24 20 16 15 21 77 124 108 87 70 58 97 168 206 154 200 253 294 315 324 350 42 58 353 336 356 349 352 339 51 66 39 59 90 2 333 308 343 23 57 102 97 40 95 253 263 315 359 80 183 286 28 111 156 319 43 80 236 184 129 118 278 266 61 17 277 267 272 291 330 306 292 317 264 241 238 234 221 228 236 221 223 229 225 222
49 40 30 20 13 8 9 19 69 95 91 82 78 86 144 180 195 178 211 311 94 115 48 23 21 43 2 347 336 332 347 5 17 48 49 70 70 11 344 302 325 31 29 94 133 150 131 272 277 190 312 266 213 63 0 19 125 102 75 219 223 52 85 100 330 339 20 328 271 278 269 283 319 292 295 298 263 250 239 232 229 234 235 231 236 236 232 228
44 75 40 16 8 6 13 43 83 88 85 71 74 103 102 84 207 183 135 3 62 58 65 81 157 104 69 46 311 319 354 15 354 32 70 30 8 59 40 307 308 17 352 5 93 179 120 42 291 215 165 275 4 56 352 330 45 112 156 172 98 76 4 28 43 340 341 293 284 290 277 263 235 234 250 240 236 239 237 227 228 237 235 234 241 242 239 233
29 60 30 2 3 11 38 76 84 66 71 75 78 106 98 94 301 259 168 124 87 82 66 60 292 53 63 111 218 304 353 46 2 35 90 58 352 88 82 311 294 334 339 16 100 262 92 105 285 290 158 194 16 45 263 299 341 31 48 21 50 134 169 189 188 173 200 270 291 293 289 269 240 213 201 223 225 223 225 219 222 231 229 230 237 236 231 224
26 85 3 354 6 40 67 70 66 46 63 89 133 115 80 142 282 270 199 165 105 117 94 9 23 54 32 67 127 287 358 51 38 55 82 18 85 75 34 31 299 317 330 19 83 313 12 108 233 304 334 196 248 298 191 185 244 31 43 14 350 23 98 164 241 170 146 170 257 290 286 267 255 197 190 222 222 207 204 204 218 229 228 227 225 223 224 226
44 96 335 352 2 113 66 56 50 37 71 77 102 90 61 155 179 308 240 193 143 157 131 120 97 93 138 46 356 275 6 28 29 70 80 345 88 199 249 194 236 314 345 24 39 5 16 110 197 295 323 274 239 263 211 176 165 141 142 180 180 128 85 75 295 294 84 148 189 230 284 275 263 179 194 213 200 199 202 201 219 233 231 229 229 230 229 233
54 105 332 356 17 116 75 53 16 36 80 68 60 102 65 120 119 336 311 1 38 57 69 88 91 69 107 127 291 334 57 41 5 42 142 179 145 198 231 223 229 120 87 33 347 307 113 100 107 271 265 242 261 291 332 126 124 121 157 181 153 131 117 128 224 267 315 275 218 161 259 275 263 176 192 198 188 204 207 202 219 234 230 228 235 240 237 241
66 143 356 9 50 113 79 59 338 34 70 194 29 62 33 69 94 1 13 23 25 31 34 40 77 78 111 195 92 55 69 102 312 176 162 170 215 218 220 274 334 90 86 23 304 320 65 85 56 295 291 300 303 318 350 24 57 79 249 197 149 152 141 149 178 181 193 259 245 133 248 271 279 215 196 194 200 224 227 212 218 230 237 234 234 241 242 244
90 150 13 22 47 108 89 93 124 74 83 84 53 29 11 49 81 58 22 359 8 77 63 33 264 91 149 138 101 117 157 114 107 211 158 149 224 217 207 261 67 99 125 205 192 275 275 123 73 16 344 340 340 341 340 343 21 189 239 205 150 126 107 113 125 102 204 235 187 163 244 260 273 261 238 244 228 241 248 235 224 227 237 238 233 235 235 235
71 73 351 21 39 63 96 141 132 122 133 103 79 72 48 30 28 145 143 345 337 123 114 264 267 87 50 63 69 43 99 108 230 244 110 126 269 251 220 208 114 122 196 209 182 139 149 169 123 105 110 292 293 285 276 275 274 246 206 182 167 139 135 145 113 99 234 233 170 176 247 269 277 255 253 264 250 251 258 251 239 234 232 231 227 226 229 234
78 52 338 4 26 48 72 89 97 111 140 123 82 64 83 49 306 241 116 65 312 91 90 3 48 62 21 40 62 320 321 27 44 99 106 210 255 267 222 193 155 163 192 195 172 109 89 223 180 154 177 199 216 235 237 232 268 262 241 209 200 181 155 134 114 165 201 194 190 220 247 276 285 279 266 259 241 244 255 248 238 235 228 227 225 223 232 240
101 87 88 35 11 32 35 25 59 92 135 133 107 65 101 96 313 331 41 92 228 67 66 33 56 72 354 49 65 276 265 15 43 97 159 210 246 292 246 174 175 195 174 165 177 112 83 300 247 179 212 224 228 249 263 271 251 249 249 230 209 197 165 149 188 214 175 115 260 239 223 255 278 283 281 274 261 253 252 239 228 226 222 225 229 232 247 256
85 129 170 127 92 79 48 29 82 83 67 88 106 117 112 88 48 351 322 332 5 46 87 20 22 74 160 153 118 239 282 353 351 223 198 207 263 338 336 262 228 189 147 84 355 109 113 258 239 180 255 258 251 263 267 253 243 244 243 236 218 196 180 188 220 223 171 199 257 258 246 254 272 282 285 285 281 268 255 232 216 221 228 230 238 245 257 270
85 102 26 55 95 152 170 100 92 83 70 79 81 72 112 109 106 233 241 20 0 338 103 88 312 294 145 123 115 147 261 282 272 260 208 185 226 94 315 283 259 175 132 77 334 105 120 250 230 180 277 277 264 265 256 227 235 255 249 238 219 203 198 206 228 230 206 227 251 264 274 272 270 274 279 281 273 260 254 221 195 231 246 243 250 261 270 280
129 138 129 69 70 110 140 53 82 83 58 63 76 54 116 129 165 226 321 87 128 307 27 106 267 271 218 135 106 180 225 189 197 239 193 158 229 206 191 224 200 124 77 83 324 341 81 268 243 116 318 293 279 273 250 217 236 267 269 259 235 220 220 220 232 236 224 240 254 262 273 274 271 268 265 269 275 281 293 276 236 236 243 255 272 280 287 293
101 125 133 110 70 13 21 31 83 93 38 21 100 177 110 148 178 172 34 106 163 209 171 161 252 301 300 258 195 218 226 188 185 217 192 173 201 200 198 199 157 139 2 135 9 0 63 284 346 55 354 285 278 294 300 302 303 283 276 271 251 232 224 217 223 221 211 233 259 271 273 272 276 282 267 262 272 285 283 273 264 261 253 262 281 290 298 301
95 96 108 104 81 30 53 29 49 80 72 319 158 163 166 216 190 122 75 335 105 139 180 172 162 9 19 275 243 223 217 200 200 213 201 187 187 171 175 181 154 151 166 158 150 340 121 113 1 53 294 274 285 314 323 342 341 291 263 248 227 221 228 234 244 237 218 215 244 259 261 269 285 303 298 289 281 271 267 256 256 274 272 269 279 288 294 278